Regional Weather Roundup
Issued by NWS

Home | Current Version | Previous Version | Graphics & Text | Print | Product List | Glossary On
Versions: 1 2 3 4 5 6 7 8 9 10 11 12 13 14 15 16 17 18 19 20 21 22 23 24 25 26 27 28 29 30 31 32 33 34 35 36 37 38 39 40 41 42 43 44 45 46 47 48 49 50
000
ASUS43 KLMK 251102
RWRKY
KENTUCKY REGIONAL WEATHER ROUNDUP
NATIONAL WEATHER SERVICE LOUISVILLE KY
700 AM EDT MON JUL 25 2016

NOTE "FAIR" INDICATES FEW OR NO CLOUDS BELOW 12,000 FEET
WITH NO SIGNIFICANT WEATHER AND/OR OBSTRUCTIONS TO VISIBILITY.

KYZ001>023-026-027-061>063-070>075-251200-
WESTERN AND SOUTH CENTRAL KENTUCKY

CITY           SKY/WX    TMP DP  RH WIND       PRES   REMARKS
PADUCAH        PTCLDY    77  74  90 CALM      29.99R
HENDERSON      CLOUDY    77  72  83 CALM      29.99S
OWENSBORO      PTCLDY    79  78  96 VRB3      30.00R FOG
HOPKINSVILLE   CLEAR     76  73  89 S2        30.02R
BOWLING GREEN  PTCLDY    79  75  87 S7        30.02R
GLASGOW        NOT AVBL
$$

KYZ024-025-028>034-038-045-046-053-251200-
NORTH CENTRAL KENTUCKY

CITY           SKY/WX    TMP DP  RH WIND       PRES   REMARKS
LOUISVILLE/SDF CLOUDY    81  75  82 SW5       30.00R
LOUISVILLE/LOU CLOUDY    80  76  87 CALM      30.01R
FORT KNOX      CLOUDY    75  74  99 CALM      30.01R
$$

KYZ035>037-039>044-047>052-055>060-089>105-251200-
NORTHEAST KENTUCKY

CITY           SKY/WX    TMP DP  RH WIND       PRES   REMARKS
LEXINGTON      PTCLDY    76  73  91 S5        30.04R
COVINGTON      CLOUDY    77  75  93 W3        30.00R FOG
FRANKFORT      PTCLDY    77  72  84 CALM      30.02R
$$

KYZ054-064>069-076>088-106>120-251200-
SOUTHEAST KENTUCKY

CITY           SKY/WX    TMP DP  RH WIND       PRES   REMARKS
JACKSON        FOG       75  73  93 CALM      30.07R VSB 1
LONDON         CLOUDY    73  70  90 CALM      30.07R
SOMERSET       PTCLDY    72  72 100 CALM      30.07R
MIDDLESBORO    MOCLDY    73  72  99 CALM      30.10R
MONTICELLO     SUNNY    N/A N/A N/A CALM      30.07R HAZE
$$




USA.gov is the U.S. government's official web portal to all federal, state and local government web resources and services.